UAE9318 VHHH-RKSI

Flight info

Callsign UAE9318
Flight time N/A
Altitude 33000
Route DALOL V631 ENVAR M750 ANLOT B1 APU DCT DRAKE Q11 WP900 L4 LIPLO Y741 ATOTI Y722 OLMEN OLMEN3C
Aircraft B77L/H-SDE1E2E3FGHIJ2J3J4J5M1RWXY/LB1D1

Departure

Time N/A
Airport Hong Kong International Airport (VHHH)

Arrival

Time 2026-05-05 19:47
Airport Incheon International Airport (RKSI)
Time Latitude Longitude Altitude Speed Heading
2026-05-05 19:22 21.95486 114.43927 20065 ft 411 kts 120°
2026-05-05 19:22 21.83705 114.66712 23424 ft 460 kts 120°
2026-05-05 19:23 21.73126 114.92954 25571 ft 506 kts 89°
2026-05-05 19:23 21.74333 115.23096 28343 ft 525 kts 90°
2026-05-05 19:23 21.74232 115.55196 30434 ft 546 kts 88°
2026-05-05 19:23 21.74091 115.87957 32522 ft 550 kts 89°
2026-05-05 19:24 21.73891 116.21386 33135 ft 567 kts 89°
2026-05-05 19:24 21.73623 116.55343 32956 ft 564 kts 89°
2026-05-05 19:24 21.75954 116.88023 32653 ft 529 kts 64°
2026-05-05 19:24 21.87446 117.16824 33075 ft 532 kts 66°
2026-05-05 19:25 21.98164 117.47068 33119 ft 548 kts 65°
2026-05-05 19:25 22.13275 117.74780 33061 ft 547 kts 53°
2026-05-05 19:25 22.29071 118.02951 32940 ft 547 kts 54°
2026-05-05 19:25 22.45165 118.30463 32856 ft 537 kts 55°
2026-05-05 19:26 22.76128 118.85116 33022 ft 537 kts 54°
2026-05-05 19:26 22.91912 119.13013 33062 ft 548 kts 54°
2026-05-05 19:26 23.07840 119.41320 32976 ft 550 kts 55°
2026-05-05 19:27 23.39715 119.96740 32706 ft 520 kts 41°
2026-05-05 19:27 23.60722 120.17363 33112 ft 526 kts 38°
2026-05-05 19:27 23.82238 120.39919 33157 ft 544 kts 38°
2026-05-05 19:28 24.05314 120.60782 33035 ft 532 kts 29°
2026-05-05 19:28 24.29363 120.79861 32991 ft 534 kts 32°
2026-05-05 19:28 24.76539 121.18329 32944 ft 526 kts 31°
2026-05-05 19:29 25.23519 121.58421 33063 ft 558 kts 44°
2026-05-05 19:29 25.63495 122.09643 32807 ft 538 kts 38°
2026-05-05 19:30 25.87660 122.27881 33065 ft 533 kts 30°
2026-05-05 19:30 26.12278 122.47337 33143 ft 550 kts 31°
2026-05-05 19:30 26.37530 122.67260 33038 ft 558 kts 32°
2026-05-05 19:30 26.62676 122.87212 32929 ft 551 kts 32°
2026-05-05 19:31 27.12544 123.26982 33093 ft 556 kts 32°
2026-05-05 19:31 27.37896 123.47417 33129 ft 568 kts 33°
2026-05-05 19:31 27.63240 123.67970 33038 ft 567 kts 34°
2026-05-05 19:32 28.12251 124.11611 32997 ft 557 kts 37°
2026-05-05 19:32 28.36775 124.33635 33129 ft 566 kts 37°
2026-05-05 19:32 28.61747 124.56180 33167 ft 578 kts 37°
2026-05-05 19:33 28.88391 124.75716 33026 ft 556 kts 13°
2026-05-05 19:33 29.18456 124.86466 34693 ft 575 kts 15°
2026-05-05 19:33 29.48872 124.98980 35208 ft 579 kts 14°
2026-05-05 19:33 29.78540 125.10913 35020 ft 565 kts 14°
2026-05-05 19:34 30.07689 125.22774 34912 ft 545 kts 14°
2026-05-05 19:34 30.36114 125.34451 35060 ft 542 kts 14°
2026-05-05 19:34 30.64752 125.46272 35226 ft 552 kts 14°
2026-05-05 19:35 31.23196 125.70658 35091 ft 554 kts 15°
2026-05-05 19:35 31.51841 125.82730 34995 ft 540 kts 15°
2026-05-05 19:35 31.79749 125.94489 35050 ft 530 kts 14°
2026-05-05 19:35 32.07480 126.06213 35177 ft 531 kts 15°
2026-05-05 19:36 32.35116 126.17931 35233 ft 538 kts 15°
2026-05-05 19:36 32.91574 126.42212 35091 ft 534 kts 15°
2026-05-05 19:37 33.37202 126.61839 35026 ft 513 kts 15°
2026-05-05 19:37 33.64090 126.71445 34993 ft 490 kts 359°
2026-05-05 19:37 33.91539 126.73667 35276 ft 502 kts
2026-05-05 19:38 34.47979 126.79580 35118 ft 505 kts
2026-05-05 19:38 34.75541 126.82515 35050 ft 488 kts
2026-05-05 19:38 35.02194 126.85369 35045 ft 476 kts
2026-05-05 19:38 35.28559 126.88219 35168 ft 478 kts
2026-05-05 19:39 35.54903 126.91099 35230 ft 485 kts
2026-05-05 19:39 36.08724 126.97041 35074 ft 479 kts
2026-05-05 19:39 36.34914 126.99984 35005 ft 466 kts
2026-05-05 19:40 36.68511 126.99302 28426 ft 447 kts 358°
2026-05-05 19:40 36.82625 126.90840 24890 ft 434 kts 306°
2026-05-05 19:40 37.02242 126.61637 19254 ft 404 kts 314°
2026-05-05 19:40 37.17264 126.41727 15130 ft 383 kts 313°
2026-05-05 19:41 37.35692 126.41660 11471 ft 377 kts 51°
2026-05-05 19:41 37.40965 126.57112 9663 ft 342 kts 57°
2026-05-05 19:41 37.45116 126.62978 8896 ft 316 kts 40°
2026-05-05 19:41 37.46686 126.64748 8955 ft 299 kts 41°
2026-05-05 19:42 37.48159 126.66505 8980 ft 285 kts 43°
2026-05-05 19:42 37.49737 126.68031 8451 ft 298 kts 19°
2026-05-05 19:42 37.51780 126.68364 7902 ft 300 kts 347°
2026-05-05 19:42 37.53629 126.67292 7546 ft 289 kts 315°
2026-05-05 19:43 37.54914 126.65468 7445 ft 271 kts 304°
2026-05-05 19:43 37.58061 126.59692 6136 ft 245 kts 300°
2026-05-05 19:43 37.64672 126.47250 4570 ft 183 kts 299°
2026-05-05 19:43 37.65802 126.45135 4230 ft 180 kts 298°
2026-05-05 19:44 37.67818 126.39671 3576 ft 179 kts 257°
2026-05-05 19:44 37.65554 126.34497 2971 ft 162 kts 230°
2026-05-05 19:44 37.62108 126.32500 2833 ft 160 kts 152°
2026-05-05 19:44 37.57753 126.36152 2480 ft 204 kts 151°
2026-05-05 19:45 37.53821 126.39497 1344 ft 156 kts 152°
2026-05-05 19:45 37.52824 126.40228 1110 ft 140 kts 153°
2026-05-05 19:45 37.51552 126.41239 830 ft 140 kts 151°
2026-05-05 19:45 37.50722 126.41935 639 ft 145 kts 144°
2026-05-05 19:46 37.49906 126.42669 418 ft 143 kts 145°
2026-05-05 19:46 37.49104 126.43378 236 ft 142 kts 144°
2026-05-05 19:46 37.48302 126.44097 54 ft 139 kts 144°
2026-05-05 19:46 37.47628 126.44704 35 ft 83 kts 146°
2026-05-05 19:47 37.47309 126.44980 38 ft 51 kts 144°
2026-05-05 19:47 37.47058 126.45205 38 ft 27 kts 144°
2026-05-05 19:47 37.47041 126.45401 36 ft 27 kts 53°
2026-05-05 19:47 37.47137 126.45604 36 ft 27 kts 67°
2026-05-05 19:48 37.47209 126.45811 36 ft 19 kts 106°
2026-05-05 19:48 37.47169 126.45856 36 ft 0 kts 146°